{"data":{"norad_id":62391,"intl_designator":"2024-247Q","name":"LASARSAT","alt_names":[],"object_type":"PAYLOAD","status":"ACTIVE","operator":null,"country":"CZCH","launch_date":"2024-12-21","launch_site_code":"AFWTR","launch_vehicle":null,"mission":null,"orbit_class":"UNKNOWN","rcs_meters":null,"size_class":null,"mass_kg":null,"dimensions":null,"purposes":["tech_demo"],"wikipedia_slug":null,"has_3d_model":false,"image_url":null,"decayed_at":null,"tle_current":{"epoch":"2026-05-25T03:52:33.626784Z","epoch_age_seconds":54245,"freshness":"FRESH","line1":"1 62391U 24247Q   26145.16150031  .00032240  00000+0  67892-3 0  9990","line2":"2 62391  44.9756  31.4536 0006649 203.0784 156.9808 15.44740281 79750","mean_motion":15.44740281,"eccentricity":0.0006649,"inclination_deg":44.9756,"raan_deg":31.4536,"arg_perigee_deg":203.0784,"mean_anomaly_deg":156.9808,"bstar":0.00067892,"rev_number":7975,"period_min":93.219553973682,"perigee_km":427.61315789118,"apogee_km":436.66946599039,"semimajor_km":6810.2783119408,"source":"CELESTRAK","updated_at":"2026-05-25T13:38:25.536065Z"}}}